CW8198 Weather Reports


Display with metric or nautical units.
time (UTC)temp
F
wind
direction
speed
MPH
gust
MPH
rain 1hr
in
rain 24hr
in
rain mn
in
humidity
%
barometer
mb
20260506042108 46 279 1.0 2.0 0.00 0.06 0.03 54 1014.8
20260506041606 46 334 1.0 3.0 0.00 0.06 0.03 53 1014.9
20260506041109 46 330 1.0 3.0 0.00 0.06 0.03 52 1014.8
20260506040606 46 325 1.0 3.0 0.00 0.06 0.03 52 1014.9
20260506040106 46 265 2.0 5.0 0.00 0.06 0.03 52 1014.8
20260506035606 47 30 2.0 5.0 0.00 0.06 0.03 51 1014.7
20260506035105 47 9 2.0 5.0 0.00 0.06 0.03 51 1014.9
20260506034605 47 309 2.0 5.0 0.00 0.06 0.03 51 1014.8
20260506034105 47 334 2.0 4.0 0.00 0.06 0.03 51 1014.8
20260506033105 47 9 2.0 8.0 0.00 0.06 0.03 50 1014.8
20260506032604 47 330 2.0 8.0 0.00 0.06 0.03 49 1014.6
20260506032103 48 16 2.0 5.0 0.00 0.06 0.03 49 1014.6
20260506031105 48 9 2.0 5.0 0.00 0.06 0.03 49 1014.4
20260506030602 48 9 3.0 7.0 0.00 0.06 0.03 48 1014.3
20260506030103 48 330 3.0 7.0 0.00 0.06 0.03 48 1014.2
20260506025603 48 339 3.0 5.0 0.00 0.06 0.03 48 1014.2
20260506025102 48 321 3.0 6.0 0.00 0.06 0.03 48 1014.1
20260506024601 49 338 2.0 6.0 0.00 0.06 0.03 47 1014.2
20260506023601 49 15 4.0 8.0 0.00 0.06 0.03 46 1014.1
20260506023100 49 41 3.0 7.0 0.00 0.06 0.03 45 1014.0
20260506022600 49 9 3.0 6.0 0.00 0.06 0.03 46 1014.0
20260506022100 49 346 4.0 6.0 0.00 0.06 0.03 45 1013.8
20260506021601 50 298 4.0 10.0 0.00 0.06 0.03 44 1013.8
20260506021059 50 9 5.0 10.0 0.00 0.06 0.03 44 1013.7
20260506020559 50 334 4.0 10.0 0.00 0.06 0.03 44 1013.6
20260506020058 50 325 4.0 10.0 0.00 0.06 0.03 44 1013.6
20260506015558 50 13 3.0 9.0 0.00 0.06 0.03 43 1013.6
20260506015057 50 29 3.0 9.0 0.00 0.06 0.03 43 1013.5
20260506014556 51 325 4.0 9.0 0.00 0.06 0.03 42 1013.4
20260506014056 51 32 4.0 11.0 0.00 0.06 0.03 43 1013.3
20260506013557 51 286 4.0 11.0 0.00 0.06 0.03 42 1013.1
20260506013056 51 24 5.0 10.0 0.00 0.06 0.03 42 1013.1
20260506012556 51 340 5.0 13.0 0.00 0.06 0.03 42 1013.1
20260506012056 51 328 6.0 13.0 0.00 0.06 0.03 41 1013.0
20260506011557 52 348 4.0 11.0 0.00 0.06 0.03 42 1012.9
20260506011054 52 341 5.0 12.0 0.00 0.06 0.03 42 1013.0
20260506010554 52 11 6.0 12.0 0.00 0.06 0.03 41 1012.9
20260506010054 52 346 5.0 14.0 0.00 0.06 0.03 40 1012.9
20260506005554 53 342 7.0 15.0 0.00 0.06 0.03 40 1012.9
20260506004553 53 327 9.0 15.0 0.00 0.06 0.03 40 1012.9
20260506004053 53 305 7.0 13.0 0.00 0.06 0.03 40 1012.7
20260506003553 53 342 5.0 15.0 0.00 0.06 0.03 41 1012.7
20260506003053 53 336 6.0 15.0 0.00 0.06 0.03 39 1012.6
20260506002552 53 18 8.0 16.0 0.00 0.06 0.03 39 1012.7
20260506002054 53 22 8.0 17.0 0.00 0.06 0.03 39 1012.6
20260506001550 53 325 11.0 17.0 0.00 0.06 0.03 39 1012.6
20260506001050 53 342 7.0 14.0 0.00 0.06 0.03 40 1012.5
20260506000550 54 13 5.0 14.0 0.00 0.06 0.03 40 1012.5
20260505235549 54 23 6.0 15.0 0.00 0.06 0.03 40 1012.6
20260505235049 54 18 8.0 15.0 0.00 0.06 0.03 40 1012.5
20260505234048 54 205 6.0 16.0 0.00 0.06 0.03 39 1012.4
20260505232044 55 30 10.0 14.0 0.00 0.06 0.03 38 1012.3
20260505231542 55 11 7.0 16.0 0.00 0.06 0.03 39 1012.3
20260505231041 55 13 9.0 19.0 0.00 0.06 0.03 39 1012.3
20260505230541 56 11 6.0 19.0 0.00 0.06 0.03 39 1012.2
20260505230040 56 347 7.0 18.0 0.00 0.06 0.03 39 1012.3
20260505225540 57 351 8.0 20.0 0.00 0.06 0.03 38 1012.2
20260505225040 58 303 10.0 20.0 0.00 0.06 0.03 38 1012.1
20260505224539 58 9 4.0 13.0 0.00 0.06 0.03 38 1012.1
20260505224039 59 325 3.0 15.0 0.00 0.06 0.03 39 1012.0
20260505223540 59 301 7.0 15.0 0.00 0.06 0.03 39 1012.0
20260505223038 59 312 5.0 15.0 0.00 0.06 0.03 39 1012.0
20260505222039 59 275 4.0 14.0 0.00 0.06 0.03 38 1012.0
20260505221537 59 287 4.0 11.0 0.00 0.06 0.03 41 1012.0
20260505221037 58 338 4.0 12.0 0.00 0.06 0.03 40 1012.0
20260505220535 58 303 4.0 14.0 0.00 0.06 0.03 40 1011.9
20260505220035 58 9 7.0 14.0 0.00 0.06 0.03 41 1011.9
20260505215534 58 277 5.0 11.0 0.00 0.06 0.03 39 1011.8
20260505215032 58 257 4.0 14.0 0.00 0.06 0.03 38 1011.9
20260505214032 58 300 6.0 15.0 0.00 0.06 0.03 38 1011.9
20260505213532 59 297 8.0 15.0 0.00 0.06 0.03 38 1012.0
20260505213032 59 332 7.0 13.0 0.00 0.06 0.03 37 1012.0
20260505212532 59 350 4.0 14.0 0.00 0.06 0.03 41 1012.0
20260505212033 58 268 6.0 14.0 0.00 0.06 0.03 42 1012.2
20260505211531 58 16 3.0 16.0 0.00 0.06 0.03 41 1012.2
20260505211031 58 323 5.0 16.0 0.00 0.06 0.03 39 1012.1
20260505210531 58 314 9.0 16.0 0.00 0.06 0.03 41 1012.2
20260505210030 58 32 6.0 18.0 0.00 0.06 0.03 40 1012.3
20260505205529 58 15 11.0 18.0 0.00 0.06 0.03 40 1012.4
20260505205029 59 10 7.0 14.0 0.00 0.06 0.03 41 1012.4
20260505204528 59 57 6.0 14.0 0.00 0.06 0.03 39 1012.5
20260505204028 60 336 4.0 15.0 0.00 0.06 0.03 41 1012.5
20260505203528 60 346 9.0 15.0 0.00 0.06 0.03 39 1012.5
20260505203028 60 328 4.0 10.0 0.00 0.06 0.03 40 1012.6
20260505202527 60 344 6.0 14.0 0.00 0.06 0.03 39 1012.6
20260505202029 60 292 5.0 15.0 0.00 0.06 0.03 39 1012.6
20260505200525 61 325 6.0 16.0 0.00 0.06 0.03 39 1012.7
20260505200025 61 350 6.0 13.0 0.00 0.06 0.03 41 1012.7
20260505195524 61 339 5.0 19.0 0.00 0.06 0.03 41 1012.7
20260505195024 61 16 7.0 19.0 0.00 0.06 0.03 39 1012.7
20260505194524 61 311 5.0 16.0 0.00 0.06 0.03 41 1012.6
20260505194024 60 342 4.0 16.0 0.00 0.06 0.03 43 1012.8
20260505193524 60 330 6.0 17.0 0.00 0.06 0.03 40 1012.8
20260505193022 60 13 8.0 18.0 0.00 0.06 0.03 39 1012.7
20260505192024 61 309 6.0 15.0 0.00 0.06 0.03 38 1012.9
20260505191522 62 11 5.0 11.0 0.00 0.06 0.03 40 1013.0
20260505191022 62 302 4.0 15.0 0.00 0.06 0.03 39 1013.0
20260505190522 62 334 6.0 15.0 0.00 0.06 0.03 39 1013.0
20260505190020 62 277 4.0 10.0 0.00 0.06 0.03 44 1013.1
20260505185520 61 303 5.0 13.0 0.00 0.06 0.03 44 1013.1
20260505185020 60 329 4.0 16.0 0.00 0.06 0.03 42 1013.1
20260505184520 60 38 7.0 17.0 0.00 0.06 0.03 42 1013.1
20260505184019 60 319 5.0 21.0 0.00 0.06 0.03 42 1013.1
20260505183518 60 334 11.0 21.0 0.00 0.06 0.03 40 1013.3
20260505183018 62 344 5.0 13.0 0.00 0.06 0.03 38 1013.3
20260505182518 62 306 4.0 16.0 0.00 0.06 0.03 44 1013.3
20260505182019 61 329 6.0 17.0 0.00 0.06 0.03 47 1013.4
20260505181517 61 329 6.0 17.0 0.00 0.06 0.03 43 1013.4
20260505181016 61 324 9.0 16.0 0.00 0.06 0.03 44 1013.4
20260505180514 61 11 6.0 17.0 0.00 0.06 0.03 43 1013.4
20260505180012 61 342 7.0 17.0 0.00 0.06 0.03 46 1013.5
20260505175512 61 346 9.0 17.0 0.00 0.06 0.03 43 1013.4
20260505175011 61 314 5.0 13.0 0.00 0.06 0.03 46 1013.3
20260505174511 61 309 4.0 13.0 0.00 0.06 0.03 45 1013.3
20260505173011 59 317 4.0 13.0 0.00 0.06 0.03 48 1013.5
20260505172509 58 9 7.0 13.0 0.00 0.06 0.03 53 1013.7
20260505172010 57 294 3.0 8.0 0.00 0.06 0.03 53 1013.6
20260505171509 57 51 1.0 7.0 0.00 0.06 0.03 47 1013.8
20260505171008 57 254 2.0 7.0 0.00 0.06 0.03 55 1013.7
20260505170508 57 286 2.0 7.0 0.00 0.06 0.03 53 1013.9
20260505170008 56 289 2.0 7.0 0.00 0.06 0.03 50 1013.9
20260505165507 56 286 4.0 7.0 0.00 0.06 0.03 52 1013.9
20260505165007 56 317 2.0 6.0 0.00 0.06 0.03 55 1013.9
20260505164506 56 325 3.0 6.0 0.00 0.06 0.03 53 1014.1
20260505163506 56 16 2.0 6.0 0.00 0.06 0.03 56 1014.0
20260505163005 55 281 2.0 8.0 0.00 0.06 0.03 60 1013.9
20260505162506 54 9 1.0 9.0 0.00 0.06 0.03 60 1013.7
20260505162005 54 338 2.0 9.0 0.00 0.06 0.03 62 1013.6
20260505161005 53 309 2.0 8.0 0.00 0.06 0.03 63 1013.6
20260505160503 53 279 2.0 8.0 0.00 0.06 0.03 65 1013.5
20260505153003 50 323 2.0 8.0 0.00 0.06 0.03 71 1013.4
20260505152002 49 247 2.0 8.0 0.00 0.06 0.03 72 1013.3
20260505151502 49 334 3.0 9.0 0.00 0.06 0.03 72 1013.3
20260505151001 49 334 3.0 9.0 0.00 0.06 0.03 74 1013.4
20260505150501 49 309 3.0 8.0 0.00 0.06 0.03 74 1013.1
20260505140459 46 282 2.0 6.0 0.00 0.06 0.03 83 1013.0
20260505124948 46 19 1.0 3.0 0.00 0.06 0.03 88 1011.8
20260505124448 45 334 1.0 3.0 0.00 0.06 0.03 89 1011.7
20260505122947 44 325 1.0 2.0 0.00 0.06 0.03 88 1011.4
20260505122447 44 275 0.0 2.0 0.00 0.06 0.03 88 1011.4
20260505121946 44 255 1.0 2.0 0.00 0.06 0.03 88 1011.2
20260505121446 44 338 0.0 2.0 0.00 0.06 0.03 88 1011.1
20260505120944 44 319 1.0 2.0 0.00 0.06 0.03 88 1010.9
20260505115944 44 229 1.0 2.0 0.00 0.06 0.03 88 1010.8
20260505115444 44 9 0.0 1.0 0.00 0.06 0.03 87 1010.6
20260505114442 44 319 1.0 2.0 0.00 0.06 0.03 87 1010.4
20260505113943 44 26 1.0 2.0 0.00 0.06 0.03 87 1010.3
20260505113442 44 9 0.0 1.0 0.00 0.06 0.03 87 1010.5
20260505112944 44 34 0.0 1.0 0.00 0.06 0.03 87 1010.4
20260505112443 44 51 0.0 1.0 0.00 0.06 0.03 87 1010.4
20260505111442 44 146 0.0 1.0 0.00 0.06 0.03 87 1010.5
20260505110941 44 9 0.0 1.0 0.00 0.06 0.03 87 1010.5
20260505110441 44 137 0.0 1.0 0.00 0.06 0.03 87 1010.6
20260505101923 45 9 1.0 2.0 0.00 0.06 0.03 88 1010.9
20260505101424 45 330 1.0 3.0 0.00 0.06 0.03 88 1010.8
20260505100422 45 34 1.0 2.0 0.00 0.06 0.03 88 1010.8
20260505095917 45 325 1.0 2.0 0.00 0.06 0.03 88 1010.8
20260505095416 45 291 0.0 2.0 0.00 0.06 0.03 88 1010.7
20260505094915 45 9 1.0 2.0 0.00 0.06 0.03 88 1010.5
20260505093916 45 265 1.0 2.0 0.00 0.06 0.03 88 1010.6
20260505093414 45 265 0.0 3.0 0.00 0.06 0.03 88 1010.4
20260505092913 45 309 1.0 4.0 0.00 0.06 0.03 88 1010.3
20260505092413 45 16 2.0 4.0 0.00 0.06 0.03 88 1010.2
20260505091914 45 346 2.0 4.0 0.00 0.06 0.03 88 1009.9
20260505085912 46 334 1.0 3.0 0.00 0.06 0.03 88 1009.8
20260505085414 46 282 1.0 3.0 0.00 0.06 0.03 88 1009.7
20260505084912 46 344 1.0 3.0 0.00 0.06 0.03 87 1009.8
20260505084412 46 337 2.0 3.0 0.00 0.06 0.03 87 1009.8
20260505083911 46 348 1.0 3.0 0.00 0.06 0.03 87 1009.7
20260505083410 47 282 1.0 2.0 0.00 0.06 0.03 87 1009.7
20260505082911 47 298 1.0 2.0 0.00 0.06 0.03 87 1009.5
20260505082410 47 319 1.0 3.0 0.00 0.06 0.03 87 1009.4
20260505081910 47 9 0.0 3.0 0.00 0.06 0.03 87 1009.3
20260505081409 47 309 1.0 2.0 0.00 0.06 0.03 87 1009.3
20260505080909 47 309 1.0 1.0 0.00 0.06 0.03 87 1009.1
20260505080411 47 325 0.0 2.0 0.00 0.06 0.03 87 1009.1
20260505075908 47 291 0.0 2.0 0.00 0.06 0.03 87 1008.9
20260505075408 47 338 1.0 2.0 0.00 0.06 0.03 87 1008.7
20260505074909 47 9 1.0 2.0 0.01 0.06 0.03 87 1008.9
20260505074407 47 342 1.0 2.0 0.01 0.06 0.03 87 1008.9
20260505073406 47 9 1.0 2.0 0.01 0.06 0.03 87 1009.0
20260505072908 48 9 1.0 2.0 0.01 0.06 0.03 86 1009.0
20260505072408 48 319 0.0 1.0 0.01 0.06 0.03 86 1009.0
20260505071906 48 221 0.0 2.0 0.01 0.06 0.03 86 1009.0
20260505071405 48 178 1.0 2.0 0.01 0.06 0.03 86 1008.9
20260505070906 48 238 1.0 3.0 0.01 0.06 0.03 86 1008.9
20260505065404 48 309 1.0 2.0 0.02 0.06 0.03 85 1008.5
20260505064903 48 9 1.0 2.0 0.01 0.05 0.02 85 1008.2
20260505064404 48 26 0.0 2.0 0.01 0.05 0.02 85 1008.6
20260505063903 48 9 1.0 2.0 0.01 0.05 0.02 84 1008.9
20260505063402 48 205 0.0 1.0 0.01 0.05 0.02 84 1008.7
20260505062903 48 309 0.0 2.0 0.01 0.05 0.02 84 1008.8
20260505062402 48 165 1.0 3.0 0.01 0.05 0.02 83 1008.7
20260505061901 48 93 1.0 3.0 0.01 0.05 0.02 83 1008.7
20260505061401 48 309 1.0 3.0 0.01 0.05 0.02 82 1009.2
20260505060903 48 282 2.0 3.0 0.01 0.05 0.02 82 1009.2
20260505055856 48 9 0.0 2.0 0.01 0.04 0.01 80 1008.9
20260505055356 48 291 1.0 3.0 0.01 0.04 0.01 80 1008.9
20260505054855 48 41 1.0 3.0 0.02 0.04 0.01 80 1008.9
20260505054355 48 22 2.0 3.0 0.03 0.04 0.01 79 1009.1
20260505053854 48 342 0.0 3.0 0.03 0.04 0.01 79 1009.2
20260505053355 48 275 1.0 3.0 0.04 0.04 0.01 78 1009.4
20260505052854 48 9 1.0 3.0 0.04 0.04 0.01 77 1009.0
20260505052353 49 221 1.0 3.0 0.04 0.04 0.01 77 1008.9
20260505051353 49 105 1.0 4.0 0.04 0.04 0.01 74 1008.5
20260505050352 49 9 2.0 4.0 0.03 0.03 0.00 72 1009.0